Date String (YYYY-MM-DD hh:mm:ss) UTC,Instrument flags,Ambient pressure (hPa),Sample flow (lpm),Bypass flow (lpm),Sample temperature (°C),Ambient temperature (°C),ASC tube jacket temperature (°C),LED temperature (°C),Box temperature (°C),Sample RH (%),Span deviation,Mass concentration (μg/m³),Mass concentration (μg/m³),Mass concentration (μg/m³)
DateTimeUTC,F1_M11,P_M11,Q1_M11,Q2_M11,T1_M11,T2_M11,T3_M11,T4_M11,T5_M11,U1_M11,ZSPAN_M11,X0_M11,X2_M11,X1_M11
2021-09-27 16:00:00,,0827.0,4.99,0.00,29.6,27.6,00.0,38.8,31.3,15.2,0001.5,0018.02,0006.50,0005.24
2021-09-27 16:01:00,,0827.0,5.02,0.00,29.7,27.9,00.0,38.8,31.4,15.1,0000.9,0017.41,0006.54,0005.25
2021-09-27 16:02:00,,0827.1,5.00,0.00,29.7,28.2,00.0,38.8,31.5,14.9,0001.1,0018.59,0006.56,0005.27
2021-09-27 16:03:00,,0827.3,4.99,0.00,29.7,28.4,00.0,38.8,31.5,14.6,0001.0,0018.72,0006.63,0005.31
2021-09-27 16:04:00,,0827.4,5.01,0.00,29.8,28.6,00.0,38.8,31.6,14.4,0001.2,0019.22,0006.69,0005.32
2021-09-27 16:05:00,,0827.2,4.99,0.00,29.8,28.8,00.0,38.8,31.7,14.6,0001.2,0019.62,0006.72,0005.30
2021-09-27 16:06:00,,0827.2,5.00,0.00,29.9,28.9,00.0,38.8,31.7,14.4,0001.6,0018.92,0006.63,0005.28
2021-09-27 16:07:00,,0827.4,5.01,0.00,29.9,28.3,00.0,38.8,31.6,13.9,0002.2,0019.18,0006.67,0005.30
2021-09-27 16:08:00,,0827.5,5.00,0.00,29.7,26.6,00.0,38.8,31.1,13.3,0002.3,0019.45,0006.71,0005.31
2021-09-27 16:09:00,,0827.3,4.99,0.00,29.6,26.4,00.0,38.8,31.0,13.6,0002.3,0019.46,0006.71,0005.30
2021-09-27 16:10:00,,0827.3,5.00,0.00,29.6,26.8,00.0,38.8,31.2,13.6,0002.4,0019.40,0006.68,0005.29
2021-09-27 16:11:00,,0827.5,5.01,0.00,29.6,27.2,00.0,38.7,31.2,13.2,0002.4,0019.16,0006.64,0005.24
2021-09-27 16:12:00,,0827.3,5.01,0.00,29.6,27.6,00.0,38.7,31.3,13.3,0002.9,0019.07,0006.57,0005.22
2021-09-27 16:13:00,,0827.4,4.99,0.00,29.6,28.0,00.0,38.7,31.4,12.9,0002.7,0017.71,0006.49,0005.19
2021-09-27 16:14:00,,0827.5,4.99,0.00,29.7,28.2,00.0,38.7,31.4,12.6,0002.4,0017.46,0006.37,0005.15
2021-09-27 16:15:00,,0827.3,5.01,0.00,29.7,28.5,00.0,38.7,31.5,13.2,0002.7,0016.87,0006.26,0005.13
2021-09-27 16:16:00,,0827.2,5.00,0.00,29.7,28.6,00.0,38.7,31.6,13.4,0003.1,0016.53,0006.20,0005.13
2021-09-27 16:17:00,,0827.1,4.99,0.00,29.8,28.8,00.0,38.7,31.7,13.1,0002.8,0015.57,0006.23,0005.14
2021-09-27 16:18:00,,0827.1,5.02,0.00,29.8,29.0,00.0,38.8,31.7,12.5,0002.5,0014.74,0006.19,0005.12
2021-09-27 16:19:00,,0827.2,4.99,0.00,29.9,28.7,00.0,38.8,31.7,12.8,0002.5,0013.83,0006.16,0005.11
2021-09-27 16:20:00,,0827.5,5.01,0.00,29.8,27.1,00.0,38.8,31.3,13.4,0002.7,0013.85,0006.18,0005.09
2021-09-27 16:21:00,,0827.3,5.00,0.00,29.7,26.4,00.0,38.8,31.1,13.6,0002.9,0013.31,0006.17,0005.08
2021-09-27 16:22:00,,0827.2,5.01,0.00,29.6,26.8,00.0,38.8,31.1,13.5,0002.9,0013.18,0006.16,0005.09
2021-09-27 16:23:00,,0827.1,4.99,0.00,29.6,27.2,00.0,38.7,31.2,13.4,0003.0,0013.24,0006.20,0005.08
2021-09-27 16:24:00,,0827.1,5.01,0.00,29.6,27.6,00.0,38.7,31.3,13.4,0002.8,0012.63,0006.22,0005.09
2021-09-27 16:25:00,,0827.1,4.99,0.00,29.6,28.0,00.0,38.7,31.3,13.2,0002.7,0012.53,0006.21,0005.10
2021-09-27 16:26:00,,0827.2,5.00,0.00,29.7,28.2,00.0,38.7,31.4,13.5,0002.6,0012.39,0006.21,0005.09
2021-09-27 16:27:00,,0827.2,5.00,0.00,29.7,28.5,00.0,38.7,31.5,13.7,0002.3,0012.93,0006.24,0005.07
2021-09-27 16:28:00,,0827.2,5.00,0.00,29.7,27.6,00.0,38.7,31.3,13.6,0002.0,0013.55,0006.21,0005.06
2021-09-27 16:29:00,,0827.0,4.98,0.00,29.6,26.1,00.0,38.7,30.9,13.8,0002.3,0014.24,0006.23,0005.06
2021-09-27 16:30:00,,0827.0,5.01,0.00,29.5,26.2,00.0,38.7,30.9,13.9,0002.6,0014.52,0006.20,0005.06
2021-09-27 16:31:00,,0827.0,5.00,0.00,29.4,26.7,00.0,38.6,31.0,13.8,0002.5,0015.18,0006.17,0005.06
2021-09-27 16:32:00,,0827.0,5.01,0.00,29.4,27.1,00.0,38.6,31.0,13.7,0002.7,0015.59,0006.17,0005.07
2021-09-27 16:33:00,,0827.0,4.99,0.00,29.4,27.5,00.0,38.6,31.1,13.5,0003.1,0015.78,0006.16,0005.07
2021-09-27 16:34:00,,0827.0,5.00,0.00,29.5,27.9,00.0,38.6,31.2,13.6,0002.8,0015.72,0006.12,0005.07
2021-09-27 16:35:00,,0827.2,5.01,0.00,29.5,28.2,00.0,38.6,31.3,13.6,0002.9,0015.82,0006.07,0005.05
2021-09-27 16:36:00,,0827.0,5.00,0.00,29.6,28.4,00.0,38.6,31.4,13.2,0003.5,0015.98,0006.07,0005.05
2021-09-27 16:37:00,,0827.1,5.00,0.00,29.6,28.4,00.0,38.6,31.4,13.2,0003.4,0016.11,0006.11,0005.04
2021-09-27 16:38:00,,0827.1,5.01,0.00,29.5,26.9,00.0,38.6,31.0,12.7,0003.3,0016.37,0006.12,0005.04
2021-09-27 16:39:00,,0827.1,5.00,0.00,29.4,26.0,00.0,38.6,30.8,12.8,0003.3,0015.55,0006.18,0005.05
2021-09-27 16:40:00,,0827.0,4.99,0.00,29.3,26.4,00.0,38.5,30.9,12.9,0003.4,0014.74,0006.21,0005.06
2021-09-27 16:41:00,,0827.0,4.99,0.00,29.3,26.8,00.0,38.5,31.0,13.0,0003.0,0014.41,0006.21,0005.07
2021-09-27 16:42:00,,0827.0,5.01,0.00,29.3,27.2,00.0,38.5,31.0,13.1,0002.8,0014.15,0006.22,0005.08
2021-09-27 16:43:00,,0827.0,4.99,0.00,29.4,27.6,00.0,38.5,31.1,12.9,0002.6,0013.81,0006.20,0005.08
2021-09-27 16:44:00,,0827.0,5.00,0.00,29.4,27.9,00.0,38.5,31.2,13.0,0002.1,0013.43,0006.17,0005.08
2021-09-27 16:45:00,,0827.0,4.99,0.00,29.5,28.2,00.0,38.5,31.3,13.3,0002.0,0013.28,0006.10,0005.08
2021-09-27 16:46:00,,0827.0,5.01,0.00,29.5,28.4,00.0,38.5,31.3,13.4,0001.9,0013.19,0006.15,0005.10
2021-09-27 16:47:00,,0827.0,5.00,0.00,29.6,28.6,00.0,38.5,31.4,13.3,0001.3,0013.90,0006.13,0005.09
2021-09-27 16:48:00,,0826.9,5.00,0.00,29.6,28.1,00.0,38.5,31.3,13.1,0001.0,0014.41,0006.13,0005.10
2021-09-27 16:49:00,,0827.2,5.01,0.00,29.5,26.5,00.0,38.5,30.9,12.9,0000.9,0014.12,0006.12,0005.10
2021-09-27 16:50:00,,0827.2,4.99,0.00,29.4,26.2,00.0,38.5,30.8,12.1,0000.9,0014.81,0006.07,0005.08
2021-09-27 16:51:00,,0827.0,5.00,0.00,29.3,26.6,00.0,38.5,30.9,12.2,0000.7,0015.67,0005.98,0005.05
2021-09-27 16:52:00,,0827.1,4.99,0.00,29.3,27.0,00.0,38.4,31.0,12.4,0000.7,0016.17,0005.96,0005.00
2021-09-27 16:53:00,,0827.0,5.01,0.00,29.3,27.4,00.0,38.4,31.1,13.1,0000.8,0016.59,0005.96,0004.97
2021-09-27 16:54:00,,0827.1,5.01,0.00,29.4,27.8,00.0,38.4,31.1,13.2,0000.7,0016.43,0006.01,0004.96
2021-09-27 16:55:00,,0827.2,5.00,0.00,29.4,28.1,00.0,38.4,31.2,13.2,0000.6,0016.46,0006.04,0004.95
2021-09-27 16:56:00,,0827.1,5.00,0.00,29.5,28.3,00.0,38.4,31.3,13.4,0000.4,0017.10,0006.13,0004.97
2021-09-27 16:57:00,,0827.2,5.01,0.00,29.5,28.5,00.0,38.4,31.4,13.4,0000.6,0017.01,0006.14,0004.96
2021-09-27 16:58:00,,0827.0,5.00,0.00,29.6,28.3,00.0,38.5,31.3,13.2,0000.9,0016.93,0006.21,0004.98
2021-09-27 16:59:00,,0826.9,4.99,0.00,29.5,26.6,00.0,38.5,30.9,13.3,0001.7,0016.70,0006.19,0004.99
